EW9485 Weather Reports


Display with metric or nautical units.
time (UTC)temp
F
wind
direction
speed
MPH
gust
MPH
rain 1hr
in
rain 24hr
in
rain mn
in
humidity
%
barometer
mb
20260510211548 83 180 6.0 13.0 0.00 0.01 0.00 67 1015.3
20260510211048 81 210 5.0 12.0 0.00 0.01 0.00 67 1015.3
20260510210545 82 202 4.0 12.0 0.00 0.01 0.00 67 1015.3
20260510210106 82 183 6.0 12.0 0.00 0.01 0.00 66 1015.3
20260510205546 81 228 5.0 12.0 0.00 0.02 0.00 67 1015.4
20260510205045 82 231 5.0 12.0 0.00 0.02 0.00 68 1015.5
20260510204553 81 167 4.0 11.0 0.00 0.02 0.00 69 1015.5
20260510204049 82 169 5.0 11.0 0.00 0.02 0.00 67 1015.6
20260510203548 82 186 6.0 10.0 0.00 0.02 0.00 68 1015.7
20260510203051 84 165 5.0 11.0 0.00 0.02 0.00 69 1015.7
20260510202545 83 194 6.0 11.0 0.00 0.02 0.00 68 1015.7
20260510202046 83 184 5.0 10.0 0.00 0.02 0.00 68 1015.8
20260510201552 83 185 5.0 15.0 0.00 0.02 0.00 71 1015.7
20260510201049 83 184 5.0 15.0 0.00 0.02 0.00 69 1015.7
20260510200545 83 223 8.0 15.0 0.00 0.02 0.00 68 1015.7
20260510200048 83 191 8.0 15.0 0.00 0.02 0.00 69 1015.7
20260510195547 82 186 6.0 15.0 0.00 0.14 0.00 71 1015.7
20260510195045 83 218 7.0 15.0 0.00 0.14 0.00 69 1015.8
20260510194548 84 227 5.0 12.0 0.00 0.14 0.00 70 1015.8
20260510194049 84 212 6.0 13.0 0.00 0.14 0.00 71 1015.8
20260510193545 84 236 8.0 13.0 0.00 0.14 0.00 66 1015.6
20260510193101 85 229 5.0 13.0 0.00 0.14 0.00 66 1015.7
20260510192547 84 186 5.0 13.0 0.00 0.14 0.00 66 1015.7
20260510192046 85 196 6.0 13.0 0.00 0.14 0.00 65 1015.7
20260510191558 86 192 5.0 12.0 0.00 0.14 0.00 64 1015.6
20260510191048 87 225 6.0 12.0 0.00 0.14 0.00 65 1015.6
20260510190545 87 246 3.0 9.0 0.00 0.14 0.00 64 1015.7
20260510190053 86 240 3.0 10.0 0.00 0.14 0.00 59 1015.7
20260510185546 86 236 3.0 10.0 0.00 0.15 0.00 58 1015.8
20260510185047 85 197 3.0 8.0 0.00 0.15 0.00 60 1015.7
20260510184549 86 240 3.0 8.0 0.00 0.15 0.00 57 1015.8
20260510184049 86 188 3.0 8.0 0.00 0.15 0.00 59 1015.7
20260510183546 86 242 5.0 8.0 0.00 0.15 0.00 63 1015.8
20260510183052 86 235 4.0 9.0 0.00 0.15 0.00 58 1015.8
20260510182550 86 204 2.0 9.0 0.00 0.15 0.00 58 1015.8
20260510182050 85 192 1.0 8.0 0.00 0.15 0.00 60 1015.9
20260510181552 84 182 4.0 9.0 0.00 0.15 0.00 58 1015.9
20260510181045 85 186 4.0 9.0 0.00 0.15 0.00 59 1016.0
20260510180545 85 165 4.0 8.0 0.00 0.15 0.00 61 1016.0
20260510180058 85 182 3.0 9.0 0.00 0.15 0.00 62 1016.2
20260510175546 84 188 4.0 9.0 0.00 0.42 0.00 65 1016.0
20260510175045 84 198 2.0 7.0 0.00 0.42 0.00 62 1016.2
20260510174551 84 217 3.0 8.0 0.00 0.42 0.00 64 1016.3
20260510174044 85 150 2.0 10.0 0.00 0.42 0.00 63 1016.4
20260510173546 83 160 5.0 11.0 0.00 0.42 0.00 65 1016.4
20260510173053 83 188 4.0 11.0 0.00 0.42 0.00 63 1016.3
20260510172546 83 150 2.0 7.0 0.00 0.42 0.00 68 1016.3
20260510172045 83 113 1.0 7.0 0.00 0.42 0.00 63 1016.3
20260510171551 83 0 0.0 5.0 0.00 0.42 0.00 64 1016.3
20260510171044 85 115 1.0 5.0 0.00 0.42 0.00 59 1016.5
20260510170545 85 132 0.0 6.0 0.00 0.42 0.00 63 1016.5
20260510170100 84 136 3.0 6.0 0.00 0.42 0.00 66 1016.6
20260510165545 82 149 1.0 7.0 0.00 0.45 0.00 66 1016.6
20260510165050 82 133 2.0 7.0 0.00 0.45 0.00 64 1016.6
20260510164559 83 109 3.0 7.0 0.00 0.45 0.00 63 1016.8
20260510164045 82 68 3.0 7.0 0.00 0.45 0.00 63 1016.9
20260510163545 81 0 4.0 7.0 0.00 0.45 0.00 64 1017.0
20260510163054 81 92 1.0 5.0 0.00 0.45 0.00 67 1017.0
20260510162545 82 82 2.0 8.0 0.00 0.45 0.00 65 1017.1
20260510162045 82 159 2.0 8.0 0.00 0.45 0.00 67 1016.9
20260510161553 81 81 0.0 6.0 0.00 0.45 0.00 73 1016.9
20260510161045 81 71 3.0 7.0 0.00 0.45 0.00 67 1017.1
20260510160546 80 64 1.0 9.0 0.00 0.45 0.00 69 1017.2
20260510160100 80 67 3.0 9.0 0.00 0.45 0.00 68 1017.2
20260510155545 80 69 4.0 9.0 0.00 0.45 0.00 69 1017.1
20260510155047 80 42 2.0 11.0 0.00 0.45 0.00 70 1017.1
20260510154557 79 34 2.0 11.0 0.00 0.45 0.00 70 1017.1
20260510154048 79 76 6.0 11.0 0.00 0.45 0.00 71 1017.1
20260510153547 79 44 5.0 11.0 0.00 0.45 0.00 71 1016.9
20260510153053 79 47 3.0 10.0 0.00 0.45 0.00 70 1017.0
20260510152547 78 87 4.0 10.0 0.00 0.45 0.00 72 1017.0
20260510152047 78 64 3.0 9.0 0.00 0.45 0.00 73 1017.0
20260510151550 78 55 4.0 11.0 0.00 0.45 0.00 73 1017.0
20260510151047 78 49 5.0 11.0 0.00 0.45 0.00 77 1016.9
20260510150548 77 67 6.0 11.0 0.00 0.45 0.00 75 1017.0
20260510150052 77 5 5.0 11.0 0.00 0.45 0.00 75 1017.0
20260510145546 76 20 6.0 11.0 0.00 0.45 0.00 76 1017.0
20260510145046 77 52 7.0 11.0 0.00 0.45 0.00 76 1017.0
20260510144554 77 37 4.0 10.0 0.00 0.45 0.00 76 1017.0
20260510144047 76 32 5.0 11.0 0.00 0.45 0.00 77 1017.1
20260510143546 76 42 5.0 12.0 0.00 0.45 0.00 78 1017.2
20260510143058 76 44 7.0 12.0 0.00 0.45 0.00 77 1017.2
20260510142547 76 355 4.0 10.0 0.00 0.45 0.00 79 1017.2
20260510142047 75 81 6.0 10.0 0.00 0.45 0.00 80 1017.1
20260510141553 75 17 5.0 9.0 0.00 0.45 0.00 85 1017.1
20260510141047 74 45 4.0 9.0 0.00 0.45 0.00 87 1017.1
20260510140549 73 42 3.0 9.0 0.00 0.45 0.00 89 1017.1
20260510140057 73 49 4.0 9.0 0.00 0.45 0.00 89 1017.0
20260510135548 72 108 5.0 9.0 0.00 0.45 0.00 90 1016.8
20260510135047 72 61 2.0 8.0 0.00 0.45 0.00 91 1016.8
20260510134554 71 26 3.0 8.0 0.00 0.45 0.00 91 1016.8
20260510134046 71 13 2.0 9.0 0.00 0.45 0.00 92 1016.6
20260510133546 70 25 4.0 9.0 0.00 0.45 0.00 91 1016.6
20260510133059 70 27 4.0 6.0 0.00 0.45 0.00 92 1016.6
20260510132547 70 45 3.0 6.0 0.00 0.45 0.00 91 1016.5
20260510132051 69 82 2.0 6.0 0.00 0.45 0.00 92 1016.7
20260510131557 69 37 2.0 6.0 0.00 0.45 0.00 92 1016.7
20260510131047 69 29 3.0 5.0 0.00 0.45 0.00 91 1016.8
20260510130549 69 10 3.0 5.0 0.00 0.45 0.00 92 1017.0
20260510130054 68 0 2.0 5.0 0.00 0.45 0.00 91 1016.8
20260510125625 68 34 2.0 6.0 0.00 0.45 0.00 91 1016.7
20260510125047 68 48 1.0 6.0 0.00 0.45 0.00 91 1016.8
20260510124612 68 28 3.0 6.0 0.00 0.45 0.00 91 1016.5
20260510124049 68 47 2.0 6.0 0.00 0.45 0.00 92 1016.4
20260510123547 68 26 2.0 6.0 0.00 0.45 0.00 92 1016.3
20260510123056 68 41 1.0 5.0 0.00 0.45 0.00 91 1016.4
20260510122551 67 39 2.0 5.0 0.00 0.45 0.00 91 1016.4
20260510122047 67 48 2.0 4.0 0.00 0.45 0.00 91 1016.2
20260510121554 67 53 0.0 1.0 0.00 0.45 0.00 91 1016.1
20260510121047 67 0 0.0 0.0 0.00 0.45 0.00 91 1015.8
20260510120546 67 0 0.0 0.0 0.00 0.45 0.00 91 1015.6
20260510120103 67 0 0.0 0.0 0.00 0.45 0.00 91 1015.6
20260510115546 67 0 0.0 0.0 0.00 0.45 0.00 91 1015.6
20260510115050 67 0 0.0 0.0 0.00 0.45 0.00 91 1015.6
20260510114552 67 0 0.0 0.0 0.00 0.45 0.00 91 1015.5
20260510114047 67 0 0.0 3.0 0.00 0.45 0.00 91 1015.4
20260510113550 67 0 0.0 5.0 0.00 0.45 0.00 91 1015.3
20260510113059 66 117 1.0 6.0 0.00 0.45 0.00 91 1015.3
20260510112548 66 65 1.0 6.0 0.00 0.45 0.00 91 1015.3
20260510112047 66 74 3.0 6.0 0.00 0.45 0.00 91 1015.2
20260510111604 66 0 0.0 6.0 0.00 0.45 0.00 91 1015.2
20260510111050 66 49 1.0 7.0 0.00 0.45 0.00 91 1015.1
20260510110547 66 65 2.0 7.0 0.00 0.45 0.00 91 1014.9
20260510110052 66 74 3.0 7.0 0.00 0.45 0.00 91 1014.7
20260510105547 66 85 3.0 7.0 0.00 0.45 0.00 91 1014.6
20260510105047 66 86 2.0 7.0 0.00 0.45 0.00 91 1014.5
20260510104605 66 0 1.0 5.0 0.00 0.45 0.00 91 1014.7
20260510104049 66 56 2.0 5.0 0.00 0.45 0.00 91 1014.7
20260510103548 67 56 2.0 4.0 0.00 0.45 0.00 91 1014.6
20260510103052 67 0 0.0 0.0 0.00 0.45 0.00 91 1014.6
20260510102548 67 0 0.0 0.0 0.00 0.45 0.00 91 1014.5
20260510102048 67 0 0.0 0.0 0.00 0.45 0.00 91 1014.6
20260510101553 67 0 0.0 0.0 0.00 0.45 0.00 91 1014.5
20260510101047 67 0 0.0 0.0 0.00 0.45 0.00 91 1014.6
20260510100551 67 0 0.0 0.0 0.00 0.45 0.00 91 1014.3
20260510100050 67 0 0.0 0.0 0.00 0.45 0.00 91 1014.2
20260510095547 67 0 0.0 3.0 0.00 0.45 0.00 91 1014.2
20260510095051 67 0 0.0 4.0 0.00 0.45 0.00 91 1014.2
20260510094556 67 0 0.0 4.0 0.00 0.45 0.00 91 1014.3
20260510094047 67 69 1.0 4.0 0.00 0.45 0.00 91 1014.2
20260510093548 67 71 0.0 5.0 0.00 0.45 0.00 91 1014.1
20260510093051 67 0 1.0 5.0 0.00 0.45 0.00 91 1014.4
20260510092548 67 73 2.0 6.0 0.00 0.45 0.00 91 1014.3
20260510092052 67 49 2.0 6.0 0.00 0.45 0.00 91 1014.1
20260510091558 67 0 0.0 0.0 0.00 0.45 0.00 91 1014.4
20260510091047 67 0 0.0 3.0 0.00 0.45 0.00 91 1014.6
20260510090547 67 0 0.0 5.0 0.00 0.45 0.00 91 1014.4
20260510085547 67 18 2.0 5.0 0.00 0.45 0.00 91 1014.1
20260510085047 67 70 1.0 5.0 0.00 0.45 0.00 91 1013.7
20260510084558 67 75 2.0 5.0 0.00 0.45 0.00 91 1013.7
20260510084048 67 22 1.0 8.0 0.00 0.45 0.00 91 1014.0
20260510083547 67 26 3.0 8.0 0.00 0.45 0.00 91 1013.8
20260510083106 67 28 3.0 5.0 0.00 0.45 0.00 91 1013.8
20260510082546 67 28 2.0 5.0 0.00 0.45 0.00 91 1013.8
20260510082047 67 17 3.0 5.0 0.00 0.45 0.00 91 1013.6
20260510081556 67 0 0.0 8.0 0.00 0.45 0.00 91 1013.5
20260510081047 67 36 3.0 8.0 0.00 0.45 0.00 91 1013.6
20260510080548 67 24 5.0 8.0 0.00 0.45 0.00 91 1013.5
20260510080056 67 31 3.0 7.0 0.00 0.45 0.00 91 1013.6
20260510075546 67 13 3.0 8.0 0.00 0.45 0.00 90 1013.6
20260510075047 67 11 3.0 8.0 0.00 0.45 0.00 90 1013.6
20260510074547 67 344 3.0 7.0 0.00 0.45 0.00 91 1013.5
20260510074048 67 10 3.0 7.0 0.00 0.45 0.00 90 1013.5
20260510073548 67 11 3.0 5.0 0.00 0.45 0.00 91 1013.5
20260510073056 67 30 2.0 5.0 0.00 0.45 0.00 90 1013.3
20260510072547 67 27 2.0 5.0 0.00 0.45 0.00 90 1013.2
20260510072048 67 0 0.0 8.0 0.00 0.45 0.00 90 1013.1
20260510071550 67 30 3.0 8.0 0.00 0.45 0.00 90 1013.0
20260510071047 67 44 3.0 5.0 0.00 0.45 0.00 90 1013.1
20260510070547 67 34 1.0 5.0 0.00 0.45 0.00 90 1013.1
20260510065547 67 5 1.0 4.0 0.00 0.45 0.00 90 1013.0
20260510065047 67 14 1.0 5.0 0.00 0.45 0.00 90 1013.2
20260510064605 67 20 1.0 5.0 0.00 0.45 0.00 90 1013.2
20260510064047 67 38 2.0 4.0 0.00 0.45 0.00 90 1013.1
20260510063547 67 25 1.0 5.0 0.00 0.45 0.00 90 1013.2
20260510063053 67 0 2.0 5.0 0.00 0.45 0.00 90 1013.3
20260510062550 67 28 3.0 5.0 0.00 0.45 0.00 90 1013.2
20260510062047 67 19 0.0 4.0 0.00 0.45 0.00 90 1013.1
20260510061553 67 44 0.0 4.0 0.00 0.45 0.00 90 1013.1
20260510061048 67 17 2.0 4.0 0.00 0.45 0.00 90 1013.3
20260510060550 67 34 2.0 4.0 0.00 0.45 0.00 90 1013.4
20260510060055 67 37 2.0 4.0 0.00 0.45 0.00 90 1013.5
20260510055548 67 33 1.0 3.0 0.00 0.45 0.00 90 1013.5
20260510055048 67 33 1.0 3.0 0.00 0.45 0.00 90 1013.5
20260510054554 67 0 0.0 0.0 0.00 0.45 0.00 90 1013.4
20260510054046 67 0 0.0 0.0 0.00 0.45 0.00 90 1013.6
20260510053547 67 0 0.0 0.0 0.00 0.45 0.00 90 1013.5
20260510053051 67 0 0.0 3.0 0.00 0.45 0.00 90 1013.7
20260510052547 67 0 0.0 4.0 0.00 0.45 0.00 90 1013.8
20260510052047 67 15 1.0 4.0 0.00 0.45 0.00 89 1013.8
20260510051550 67 15 1.0 3.0 0.00 0.45 0.00 89 1014.0
20260510051050 67 0 0.0 1.0 0.00 0.45 0.00 89 1014.0
20260510050550 67 0 0.0 2.0 0.00 0.45 0.00 89 1013.9
20260510050049 67 0 0.0 2.0 0.00 0.45 0.00 89 1013.7
20260510045548 67 0 0.0 4.0 0.00 0.45 0.45 89 1013.6
20260510045047 67 0 1.0 4.0 0.00 0.45 0.45 89 1013.5
20260510044604 67 82 0.0 5.0 0.00 0.45 0.45 89 1013.5
20260510044047 67 0 2.0 7.0 0.00 0.45 0.45 89 1013.6
20260510043547 67 74 2.0 7.0 0.00 0.45 0.45 89 1013.7
20260510043051 67 71 2.0 6.0 0.00 0.45 0.45 89 1013.5
20260510042548 67 103 1.0 7.0 0.00 0.45 0.45 89 1013.5
20260510042047 67 90 1.0 7.0 0.00 0.45 0.45 89 1013.6
20260510041604 67 86 2.0 7.0 0.00 0.45 0.45 89 1013.6
20260510041048 67 95 3.0 7.0 0.00 0.45 0.45 89 1013.6
20260510040547 67 0 3.0 9.0 0.00 0.45 0.45 89 1013.6
20260510040052 67 93 4.0 9.0 0.00 0.45 0.45 89 1013.6
20260510035547 67 115 1.0 4.0 0.00 0.45 0.45 89 1013.6
20260510035048 67 88 0.0 8.0 0.00 0.45 0.45 89 1013.9
20260510034603 67 0 3.0 8.0 0.00 0.45 0.45 89 1013.8
20260510034047 67 89 2.0 11.0 0.00 0.45 0.45 89 1013.6
20260510033548 67 99 3.0 11.0 0.00 0.45 0.45 89 1013.4
20260510033057 68 75 4.0 9.0 0.00 0.45 0.45 89 1013.1
20260510032547 67 76 2.0 5.0 0.00 0.45 0.45 89 1013.7
20260510032047 68 49 0.0 9.0 0.00 0.45 0.45 89 1014.0
20260510031551 67 59 3.0 10.0 0.00 0.45 0.45 89 1013.9
20260510031046 68 63 5.0 10.0 0.00 0.45 0.45 89 1012.9
20260510030547 68 63 3.0 6.0 0.00 0.45 0.45 89 1013.5
20260510030057 68 55 2.0 6.0 0.00 0.45 0.45 89 1014.3
20260510025548 68 27 4.0 6.0 0.00 0.45 0.45 89 1013.9
20260510025118 68 25 2.0 5.0 0.00 0.45 0.45 89 1014.1
20260510024557 68 39 3.0 6.0 0.00 0.45 0.45 89 1014.4
20260510024049 68 26 3.0 6.0 0.00 0.45 0.45 89 1014.4
20260510023551 68 46 2.0 5.0 0.00 0.45 0.45 88 1014.0
20260510023050 68 72 1.0 3.0 0.00 0.45 0.45 88 1014.3
20260510022547 68 0 0.0 4.0 0.00 0.45 0.45 88 1014.4
20260510022051 68 0 1.0 4.0 0.00 0.45 0.45 88 1014.5
20260510021555 68 73 0.0 5.0 0.00 0.45 0.45 88 1014.4
20260510021046 68 32 1.0 5.0 0.00 0.45 0.45 88 1014.5
20260510020547 68 27 2.0 5.0 0.00 0.45 0.45 88 1014.6
20260510020056 68 327 2.0 6.0 0.00 0.45 0.45 88 1014.8
20260510015547 68 320 3.0 6.0 0.00 0.45 0.45 88 1014.7
20260510015048 68 19 3.0 5.0 0.00 0.45 0.45 88 1014.1
20260510014556 68 293 0.0 5.0 0.00 0.45 0.45 88 1014.3
20260510014048 68 294 1.0 6.0 0.00 0.45 0.45 88 1014.6
20260510013548 68 37 2.0 6.0 0.00 0.45 0.45 88 1013.5
20260510013101 68 38 3.0 5.0 0.00 0.45 0.45 88 1013.8
20260510012548 68 335 1.0 4.0 0.00 0.45 0.45 88 1014.2
20260510012048 68 328 1.0 4.0 0.00 0.45 0.45 88 1014.3
20260510011555 68 0 1.0 4.0 0.00 0.45 0.45 88 1014.0
20260510011047 68 24 2.0 4.0 0.00 0.45 0.45 88 1013.8
20260510010546 68 0 0.0 4.0 0.00 0.45 0.45 88 1013.8
20260510010053 68 0 2.0 5.0 0.00 0.45 0.45 88 1013.7
20260510005547 68 334 1.0 6.0 0.00 0.45 0.45 88 1013.8
20260510005046 68 19 3.0 6.0 0.00 0.45 0.45 88 1013.6
20260510004550 68 325 3.0 5.0 0.00 0.45 0.45 88 1013.6
20260510004047 68 360 3.0 5.0 0.00 0.45 0.45 88 1013.5
20260510003554 68 19 2.0 4.0 0.00 0.45 0.45 88 1013.4
20260510003056 68 22 1.0 5.0 0.00 0.45 0.45 88 1013.2
20260510002546 68 13 2.0 5.0 0.00 0.45 0.45 88 1013.2
20260510002046 68 9 2.0 5.0 0.00 0.45 0.45 88 1013.3
20260510001551 68 12 3.0 5.0 0.00 0.45 0.45 88 1013.2
20260510001053 68 28 2.0 5.0 0.00 0.45 0.45 87 1013.1
20260510000547 68 5 3.0 7.0 0.00 0.45 0.45 87 1013.0
20260510000057 68 34 3.0 7.0 0.00 0.45 0.45 87 1012.9
20260509235548 68 349 3.0 7.0 0.00 0.45 0.45 87 1012.9
20260509235047 68 10 3.0 6.0 0.00 0.45 0.45 87 1012.9
20260509234603 68 70 2.0 6.0 0.00 0.45 0.45 87 1012.8
20260509234047 68 71 3.0 8.0 0.00 0.45 0.45 87 1012.5
20260509233547 68 106 3.0 8.0 0.00 0.45 0.45 87 1012.4
20260509233056 68 111 3.0 10.0 0.00 0.45 0.45 87 1012.3
20260509232547 68 129 3.0 10.0 0.00 0.45 0.45 87 1012.3
20260509232047 68 138 3.0 11.0 0.00 0.45 0.45 88 1012.2
20260509231605 68 119 2.0 11.0 0.00 0.45 0.45 88 1012.2
20260509231050 68 137 4.0 11.0 0.00 0.45 0.45 88 1012.2
20260509230546 68 158 4.0 12.0 0.00 0.45 0.45 88 1012.0
20260509225549 68 108 6.0 12.0 0.00 0.45 0.45 88 1012.1
20260509225047 68 138 5.0 11.0 0.00 0.45 0.45 88 1012.3
20260509224556 68 124 3.0 10.0 0.00 0.45 0.45 88 1012.3
20260509224051 68 161 4.0 13.0 0.00 0.45 0.45 88 1012.1
20260509223549 68 117 5.0 13.0 0.00 0.45 0.45 88 1012.0
20260509223052 68 114 4.0 12.0 0.00 0.45 0.45 88 1012.0
20260509222550 68 107 6.0 12.0 0.00 0.45 0.45 88 1012.0
20260509222048 68 107 3.0 13.0 0.00 0.45 0.45 88 1012.1
20260509221554 68 101 5.0 13.0 0.01 0.45 0.45 88 1012.0
20260509221049 68 137 8.0 13.0 0.01 0.45 0.45 88 1012.0
20260509220546 68 141 4.0 11.0 0.01 0.45 0.45 88 1011.9
20260509220056 68 121 4.0 12.0 0.01 0.45 0.45 88 1011.8
20260509215549 68 138 3.0 12.0 0.01 0.45 0.45 88 1011.8
20260509215047 68 101 5.0 16.0 0.01 0.45 0.45 88 1011.9
20260509214550 68 163 6.0 16.0 0.01 0.45 0.45 89 1011.6
20260509214047 68 143 6.0 16.0 0.01 0.45 0.45 89 1011.6
20260509213548 67 123 7.0 16.0 0.01 0.45 0.45 89 1011.6
20260509213055 67 147 6.0 16.0 0.01 0.45 0.45 89 1011.6
20260509212548 67 120 8.0 16.0 0.01 0.45 0.45 88 1011.5
20260509212049 67 107 6.0 14.0 0.01 0.45 0.45 88 1011.4